Location: Fenile
(46.0500°N, 9.5500°E)
Time: 13:45:49
(UTC+00:00)

COSMO-SKYMED 1 - Pass Details

Date: 03 March 2021
Orbit: 621 x 623 km, 97.9° (Epoch: 16 April)

Event Time Altitude Azimuth Distance (km) Brightness Sun altitude
Rises 17:43:56 0° 11° (N) 2,916 5.9 -6.5°
Reaches altitude 10° 17:46:08 10° 9° (N) 2,005 5.1 -6.9°
Maximum altitude 17:50:29 71° 286° (WNW) 661 2.9 -7.6°
Drops below altitude 10° 17:54:47 10° 202° (SSW) 1,987 5.5 -8.4°
Sets 17:56:58 0° 201° (SSW) 2,889 6.3 -8.7°
